Main page
METAR-TAF:

METAR-TAF

Airports :

Sialkot, Pakistan

Sialkot International Airport

latitude: 32-32N, longitude: 74-22E, elevation: 255 m

Current weather observation

The report was made 19 minutes ago, at 17:00 UTC
Calm wind
Temperature 33°C
Humidity 59%
Pressure 999 hPa
Visibility: 4000 m
Scattered clouds at a height of 10000 ft
smoke

METAR: OPST 261700Z 00000KT 4000 FU SCT100 33/24 Q0999 NOSIG RH58

Time: 22:19 (17:19 UTC)


TAF: missing

Weather observations and forecasts of more than 4000 airports (METAR and TAF reports).

The available stations are represented by yellow and red dots on the map.

Hover mouse over dot to see the name of the station.

Then click to see weather observations and forecasts.

To change the map : click on the green buttons with a black cross to zoom in, on the green button with a dash to zoom out, or on the green arrows for adjacent maps.


METAR-TAF: